NOAA 16 DEB, 42409

Orbit data source: Space-Track

NOAA 16 DEB, 42409 is space debris in SSO originally from a launch on Thu, 21 Sep 2000 UTC launched from the Air Force Western Test Range (AFWTR). Debris objects in space refer to the collection of defunct objects orbiting the Earth. Examples of debris include non-operational satellites, rocket bodies, and fragments generated from explosions, collisions, or faulty payload assembly.

Loading next visibility...
Identifier
42409, 2000-055TD
Orbit
SSO
Country
Flag of USUS
Related business
Manufacturer
Unknown
Mission
Spacecraft
Bus & Motor
Unknown
Mass
Unknown
Launch date (UTC)
2000-09-21 (25 years ago)
Launch vehicle
Unknown
Launch site
Air Force Western Test Range (AFWTR)
Object type
Payload
Rocket body
Debris
Shape & HBR
Unknown shape, 0.1 m
Radar Cross Section
Small (<0.1 m²)

Expand to show TLE details & history
Last TLE update: 7 hours ago

TLE from 7 hours ago
0 NOAA 16 DEB
1 42409U 00055TD  26034.37782925  .00030840  00000-0  47707-2 0  9999
2 42409  98.7698 190.3842 0021944 356.3524   3.7518 14.73010820515598
Epoch: 2026-02-03T09:04Z
TLE epoch observation values (Epoch: 2026-02-03T09:04:04.447Z)
Latitude
-0°
Longitude
-79.19396°
Altitude
639.062 km
Speed
7.547 km/s
True Right ascension
12h 41m 32s
True Declination
0° 00' 00"
Sunlit
Object was in full shadow at epoch
Visualization orbit readout
Latitude
Unknown
Longitude
Unknown
Altitude
Unknown
Speed
Unknown
Apparent Right ascension
Unknown
Apparent Declination
Unknown
Sunlit
N/A
Visualization observer readout
Local Sidereal Time
18:25:07
Azimuth
Unknown
Elevation
Unknown
Doppler factor
Unknown
Orbital elements
Apogee altitude
663.983 km
Perigee altitude
633.144 km
Semi-major axis
7,026.701 km
Eccentricity
0.00219
Inclination
98.7698°
RAAN
190.3842°
Arg. of periapsis
356.3524°
True anomaly
3.7683°
Mean anomaly
3.7518°
Eccentric anomaly
3.76005°
Mean motion
3.68482 °/min
Orbital period
97.7 mins
BSTAR
0.0047707
Loading maneuver chart data...
Computing Atmospheric mass density...
Loading historical data...
Loading historical data...
Loading historical data...
Loading historical data...
Loading historical data...
Loading historical data...
Loading historical data...

Documentation

Showing up to 5 results
|